Regional Weather Roundup
Issued by NWS

Home | Current Version | Previous Version | Text Only | Print | Product List | Glossary Off
Versions: 1 2 3 4 5 6 7 8 9 10 11 12 13 14 15 16 17 18 19 20 21 22 23 24 25 26 27 28 29 30 31 32 33 34 35 36 37 38 39 40 41 42 43 44 45 46 47 48 49 50

000
ASUS43 KOAX 250210
RWRNE

WEATHER ROUNDUP FOR NEBRASKA
NATIONAL WEATHER SERVICE OMAHA NE
800 PM CST SAT JAN 24 2015

NOTES: SATELLITE DATA IS BEING USED TO AUGMENT CLOUD COVER ABOVE
       12000 FEET.
       "FAIR" INDICATES FEW OR NO CLOUDS BELOW 12,000 FEET WITH NO
       SIGNIFICANT WEATHER AND/OR OBSTRUCTIONS TO VISIBILITY.

  * THESE STATIONS DO NOT REPORT WEATHER SUCH AS RAIN...SNOW OR FOG.

NEZ001>004-019>022-054>056-250300-
NEBRASKA PANHANDLE

CITY           SKY/WX    TMP DP  RH WIND       PRES   REMARKS
SCOTTSBLUFF    CLOUDY    39  32  76 NW18G26   30.03S WCI  30
ALLIANCE       CLOUDY    39  33  79 NW28G36   29.92S WCI  28
CHADRON        PTCLDY    39  32  76 NW22G30   29.97R WCI  29
KIMBALL        LGT RAIN  35  34  95 NW23G29   30.05R WCI  23
SIDNEY         LGT RAIN  37  33  85 NW30G47   30.05R WCI  24
$$

NEZ057>060-069>072-079>082-250300-
SOUTHWEST NEBRASKA

CITY           SKY/WX    TMP DP  RH WIND       PRES   REMARKS
NORTH PLATTE   CLOUDY    43  37  79 NW16      29.84F
IMPERIAL       MOCLDY    47  29  49 NW31G41   29.92R
LEXINGTON      CLOUDY    49  37  65 NW25G31   29.79F
MCCOOK         CLOUDY    46  32  58 NW13      29.87R
OGALLALA       CLOUDY    46  35  67 NW30G37   29.91R
$$

NEZ005>010-023>029-035>040-094-250300-
NORTH CENTRAL NEBRASKA

CITY           SKY/WX    TMP DP  RH WIND       PRES   REMARKS
VALENTINE      MOCLDY    44  35  70 NW20G30   29.77R
AINSWORTH      CLOUDY    44  36  73 NW21G28   29.76R
BROKEN BOW     CLOUDY    49  36  61 NW29G35   29.75S
O`NEILL        MOCLDY    46  40  81 NW20G28   29.69R
ORD            CLOUDY    46  37  71 W16G29    29.71R
THEDFORD       MOCLDY    45  35  70 NW18G25   29.82R
$$

NEZ041-046>049-061>064-073>077-083>087-250300-
SOUTH CENTRAL NEBRASKA

CITY           SKY/WX    TMP DP  RH WIND       PRES   REMARKS
GRAND ISLAND   CLOUDY    44  38  79 W8        29.72F
AURORA         CLOUDY    45  39  81 W10       29.70F
HASTINGS       CLOUDY    43  28  55 W5        29.73F
HEBRON         LGT RAIN  47  34  59 W10G20    29.75S
HOLDREGE       CLOUDY    49  34  56 W21G28    29.79R
KEARNEY *      CLOUDY    48  32  53 W16       29.75F
YORK           CLOUDY    46  41  81 NW17      29.69F
$$

NEZ011>018-030>034-042>045-250300-
NORTHEAST NEBRASKA

CITY           SKY/WX    TMP DP  RH WIND       PRES   REMARKS
NORFOLK        CLOUDY    47  42  83 W18       29.61F
ALBION         CLOUDY    47  39  74 W16G22    29.67S
BLAIR          LGT RAIN  46  36  68 SW8       29.62F
COLUMBUS *     CLOUDY    46  39  76 W10       29.66F
FREMONT        LGT RAIN  46  37  71 W10       29.63F
TEKAMAH        LGT RAIN  44  36  73 SW9       29.61F
WAYNE          CLOUDY    46  38  75 W12       29.59F
$$

NEZ050>053-065>068-078-088>093-250300-
SOUTHEAST NEBRASKA

CITY           SKY/WX    TMP DP  RH WIND       PRES   REMARKS
LINCOLN        CLOUDY    48  39  71 W14       29.68F
OMAHA EPPLEY   LGT RAIN  49  38  65 W14G23    29.64S
BEATRICE       LGT RAIN  44  38  79 W13       29.71F
FALLS CITY     LGT RAIN  50  32  50 W13       29.69S
NEBRASKA CITY  DRIZZLE   48  34  57 W14       29.69R
PLATTSMOUTH    RAIN      46  36  69 W12       29.66S
$$

NEZ044-045-051>053-067-250300-
OMAHA AREA

CITY           SKY/WX    TMP DP  RH WIND       PRES   REMARKS
OMAHA EPPLEY   LGT RAIN  49  38  65 W14G23    29.64S
BLAIR          LGT RAIN  46  36  68 SW8       29.62F
FREMONT        LGT RAIN  46  37  71 W10       29.63F
MILLARD        LGT RAIN  47  37  67 W9        29.65F
OFFUTT AFB     LGT RAIN  47  38  70 W12       29.65R
PLATTSMOUTH    RAIN      46  36  69 W12       29.66S
WAHOO          RAIN      45  36  69 W10       29.65F
$$


USA.gov is the U.S. government's official web portal to all federal, state and local government web resources and services.